Location: Brienzwiler
(46.7508°N, 8.1014°E)
Time: 00:25:52
(UTC+00:00)

Helios 1B rocket - Pass Details

Date: 05 July 2020
Orbit: 574 x 584 km, 98.1° (Epoch: 11 August)

Event Time Altitude Azimuth Distance (km) Brightness Sun altitude
Rises 23:49:03 0° 17° (NNE) 2,815 7.4 -20.5°
Reaches altitude 10° 23:51:14 10° 21° (NNE) 1,908 6.1 -20.5°
Maximum altitude 23:55:20 59° 101° (ESE) 672 2.6 -20.4°
Enters shadow 23:56:02 50° 145° (SE) 739 2.6 -20.4°
